Date String (YYYY-MM-DD hh:mm:ss) UTC,Instrument flags,Ambient pressure (hPa),Sample flow (lpm),Bypass flow (lpm),Sample temperature (°C),Ambient temperature (°C),ASC tube jacket temperature (°C),LED temperature (°C),Box temperature (°C),Sample RH (%),Span deviation,Mass concentration (μg/m³),Mass concentration (μg/m³),Mass concentration (μg/m³)
DateTimeUTC,F1_M11,P_M11,Q1_M11,Q2_M11,T1_M11,T2_M11,T3_M11,T4_M11,T5_M11,U1_M11,ZSPAN_M11,X2_M11,X0_M11,X1_M11
2022-03-31 07:00:00,,0819.7,5.00,0.00,22.1,21.3,00.0,31.2,24.0,11.0,0000.0,0003.23,0008.38,0002.19
2022-03-31 07:01:00,,0819.7,5.00,0.00,22.1,21.3,00.0,31.1,23.9,11.0,0000.0,0003.22,0008.31,0002.21
2022-03-31 07:02:00,,0819.7,5.00,0.00,22.1,21.3,00.0,31.1,23.9,11.0,0000.0,0003.25,0007.98,0002.21
2022-03-31 07:03:00,,0819.8,5.00,0.00,22.1,21.3,00.0,31.1,23.9,11.0,0000.0,0003.28,0007.87,0002.24
2022-03-31 07:04:00,,0819.8,5.00,0.00,22.1,21.3,00.0,31.1,23.9,11.0,0000.0,0003.30,0007.93,0002.26
2022-03-31 07:05:00,,0819.8,5.00,0.00,22.1,21.3,00.0,31.1,23.9,11.0,0000.0,0003.31,0007.95,0002.28
2022-03-31 07:06:00,,0819.7,5.00,0.00,22.1,21.2,00.0,31.1,23.8,11.0,0000.0,0003.32,0007.54,0002.29
2022-03-31 07:07:00,,0819.8,5.01,0.00,22.0,21.2,00.0,31.1,23.8,11.0,0000.0,0003.30,0007.62,0002.31
2022-03-31 07:08:00,,0819.8,5.00,0.00,22.1,21.4,00.0,31.1,23.9,11.0,0000.0,0003.27,0007.75,0002.34
2022-03-31 07:09:00,,0819.8,4.99,0.00,22.2,22.1,00.0,31.2,24.1,11.0,0000.0,0003.25,0007.70,0002.37
2022-03-31 07:10:00,,0819.8,5.00,0.00,22.3,22.9,00.0,31.2,24.3,10.9,0000.0,0003.22,0007.55,0002.38
2022-03-31 07:11:00,,0819.8,5.00,0.00,22.4,22.9,00.0,31.2,24.4,10.8,0000.0,0003.21,0007.58,0002.37
2022-03-31 07:12:00,,0819.7,5.00,0.00,22.4,22.7,00.0,31.2,24.4,10.8,0000.0,0003.24,0007.75,0002.38
2022-03-31 07:13:00,,0819.7,4.99,0.00,22.4,22.5,00.0,31.3,24.4,10.9,0000.0,0003.24,0007.70,0002.41
2022-03-31 07:14:00,,0819.7,5.01,0.00,22.4,22.3,00.0,31.3,24.3,10.9,0000.0,0003.24,0007.67,0002.39
2022-03-31 07:15:00,,0819.7,5.00,0.00,22.4,22.1,00.0,31.3,24.2,10.9,0000.0,0003.25,0007.65,0002.40
2022-03-31 07:16:00,,0819.8,5.00,0.00,22.4,21.9,00.0,31.3,24.1,10.9,0000.0,0003.27,0007.70,0002.41
2022-03-31 07:17:00,,0819.8,5.00,0.00,22.3,21.8,00.0,31.3,24.1,10.9,0000.0,0003.28,0007.63,0002.42
2022-03-31 07:18:00,,0819.8,5.00,0.00,22.3,21.7,00.0,31.3,24.0,11.0,0000.0,0003.28,0007.42,0002.42
2022-03-31 07:19:00,,0819.8,4.99,0.00,22.3,21.6,00.0,31.3,24.0,11.0,0000.0,0003.27,0006.86,0002.41
2022-03-31 07:20:00,,0819.8,5.01,0.00,22.2,21.5,00.0,31.3,24.0,11.0,0000.0,0003.27,0006.76,0002.42
2022-03-31 07:21:00,,0819.8,5.00,0.00,22.2,21.5,00.0,31.3,24.0,11.0,0000.0,0003.32,0006.71,0002.42
2022-03-31 07:22:00,,0819.8,5.00,0.00,22.3,21.5,00.0,31.3,24.1,11.0,0000.0,0003.34,0006.17,0002.43
2022-03-31 07:23:00,,0819.8,5.00,0.00,22.3,21.5,00.0,31.3,24.1,11.0,0000.0,0003.34,0005.89,0002.44
2022-03-31 07:24:00,,0819.8,5.00,0.00,22.3,21.5,00.0,31.3,24.1,11.0,0000.0,0003.32,0005.80,0002.43
2022-03-31 07:25:00,,0819.8,4.99,0.00,22.3,21.5,00.0,31.3,24.1,11.0,0000.0,0003.29,0005.79,0002.43
2022-03-31 07:26:00,,0819.8,5.00,0.00,22.3,21.5,00.0,31.3,24.1,11.0,0000.0,0003.27,0005.76,0002.42
2022-03-31 07:27:00,,0819.7,5.01,0.00,22.3,21.5,00.0,31.3,24.1,11.0,0000.0,0003.29,0005.88,0002.44
2022-03-31 07:28:00,,0819.7,5.00,0.00,22.3,21.5,00.0,31.3,24.1,11.0,0000.0,0003.25,0005.97,0002.43
2022-03-31 07:29:00,,0819.7,5.00,0.00,22.3,21.5,00.0,31.2,24.0,11.0,0000.0,0003.25,0005.98,0002.44
2022-03-31 07:30:00,,0819.6,5.00,0.00,22.2,21.4,00.0,31.2,24.0,11.1,0000.0,0003.26,0006.42,0002.44
2022-03-31 07:31:00,,0819.6,5.00,0.00,22.2,21.4,00.0,31.2,23.9,11.1,0000.0,0003.28,0006.49,0002.44
2022-03-31 07:32:00,,0819.5,5.00,0.00,22.2,21.3,00.0,31.2,23.9,11.1,0000.0,0003.28,0007.20,0002.45
2022-03-31 07:33:00,,0819.6,5.00,0.00,22.2,21.3,00.0,31.2,23.9,11.1,0000.0,0003.32,0007.44,0002.45
2022-03-31 07:34:00,,0819.7,5.01,0.00,22.2,21.3,00.0,31.2,23.9,11.2,0000.0,0003.33,0007.46,0002.45
2022-03-31 07:35:00,,0819.7,5.00,0.00,22.1,21.3,00.0,31.2,23.9,11.2,0000.0,0003.34,0007.51,0002.45
2022-03-31 07:36:00,,0819.7,5.00,0.00,22.1,21.3,00.0,31.2,23.9,11.2,0000.0,0003.36,0007.49,0002.45
2022-03-31 07:37:00,,0819.7,5.00,0.00,22.1,21.3,00.0,31.2,23.9,11.1,0000.0,0003.36,0007.48,0002.44
2022-03-31 07:38:00,,0819.6,5.01,0.00,22.1,21.3,00.0,31.2,23.9,11.0,0000.0,0003.36,0007.54,0002.42
2022-03-31 07:39:00,,0819.5,5.00,0.00,22.1,21.3,00.0,31.2,23.9,11.0,0000.0,0003.40,0007.50,0002.41
2022-03-31 07:40:00,,0819.6,5.00,0.00,22.1,21.3,00.0,31.2,23.9,11.1,0000.0,0003.41,0007.42,0002.41
2022-03-31 07:41:00,,0819.6,5.00,0.00,22.1,21.3,00.0,31.1,23.9,11.1,0000.0,0003.41,0007.55,0002.39
2022-03-31 07:42:00,,0819.6,5.01,0.00,22.1,21.3,00.0,31.1,23.9,11.1,0000.0,0003.38,0007.60,0002.37
2022-03-31 07:43:00,,0819.6,4.99,0.00,22.1,21.3,00.0,31.1,23.9,11.1,0000.0,0003.35,0006.96,0002.35
2022-03-31 07:44:00,,0819.6,5.01,0.00,22.1,21.7,00.0,31.2,24.0,11.0,0000.0,0003.31,0006.87,0002.33
2022-03-31 07:45:00,,0819.6,5.00,0.00,22.3,22.5,00.0,31.2,24.2,10.9,0000.0,0003.31,0006.98,0002.32
2022-03-31 07:46:00,,0819.6,5.00,0.00,22.4,23.2,00.0,31.2,24.5,10.7,0000.0,0003.30,0006.94,0002.31
2022-03-31 07:47:00,,0819.6,5.00,0.00,22.5,23.1,00.0,31.3,24.5,10.7,0000.0,0003.28,0006.88,0002.29
2022-03-31 07:48:00,,0819.5,4.99,0.00,22.5,22.9,00.0,31.3,24.5,10.7,0000.0,0003.34,0007.13,0002.29
2022-03-31 07:49:00,,0819.5,5.01,0.00,22.5,22.6,00.0,31.3,24.4,10.7,0000.0,0003.32,0008.07,0002.28
2022-03-31 07:50:00,,0819.5,4.99,0.00,22.5,22.5,00.0,31.3,24.4,10.7,0000.0,0003.30,0008.21,0002.27
2022-03-31 07:51:00,,0819.5,5.01,0.00,22.5,22.3,00.0,31.4,24.4,10.7,0000.0,0003.33,0008.28,0002.27
2022-03-31 07:52:00,,0819.5,5.00,0.00,22.5,22.2,00.0,31.4,24.4,10.7,0000.0,0003.33,0008.33,0002.29
2022-03-31 07:53:00,,0819.5,4.98,0.00,22.5,22.1,00.0,31.4,24.3,10.7,0000.0,0003.34,0008.41,0002.30
2022-03-31 07:54:00,,0819.5,5.01,0.00,22.5,22.0,00.0,31.4,24.4,10.8,0000.0,0003.38,0008.47,0002.32
2022-03-31 07:55:00,,0819.5,5.00,0.00,22.5,21.9,00.0,31.4,24.3,10.9,0000.0,0003.38,0008.51,0002.34
2022-03-31 07:56:00,,0819.5,5.00,0.00,22.5,21.8,00.0,31.4,24.3,10.9,0000.0,0003.34,0008.83,0002.36
2022-03-31 07:57:00,,0819.5,5.00,0.00,22.5,21.8,00.0,31.4,24.2,10.9,0000.0,0003.35,0008.94,0002.37
2022-03-31 07:58:00,,0819.4,5.01,0.00,22.4,21.7,00.0,31.4,24.2,11.0,0000.0,0003.38,0009.00,0002.40
2022-03-31 07:59:00,,0819.4,5.00,0.00,22.4,21.7,00.0,31.4,24.2,11.0,0000.0,0003.37,0009.10,0002.41
